When you browse on this site, cookies collect data to enhance your experience and personalize the content and advertising you see.
Visit our Privacy Policy to learn more. By continuing to use the site, you agree to this use of cookies and data.
  • en Suisse
  • Liste des pays
  • À 7 jours
  • Température de l'eau
  • Carte satellitaire
  • Carte météo
  • Widgets météo
  • user-avatar
    Se connecter

    Météo par heure à Kerman

    Ce jour, 11 Décembre, Mardi

    Heure Température Précipitation Vent Pression Humidité
    00:00 +8°C° 0 mm 1 m/s 602 mmHg 29%
    01:00 +8°C° 0 mm 1 m/s 602 mmHg 29%
    02:00 +7°C° 0 mm 1 m/s 601 mmHg 30%
    03:00 +7°C° 0 mm 1 m/s 601 mmHg 30%
    04:00 +6°C° 0 mm 1 m/s 601 mmHg 32%
    05:00 +6°C° 0 mm 1 m/s 601 mmHg 33%
    06:00 +6°C° 0 mm 1 m/s 601 mmHg 34%
    07:00 +6°C° 0 mm 1 m/s 602 mmHg 35%
    08:00 +7°C° 0 mm 1 m/s 603 mmHg 32%
    09:00 +8°C° 0 mm 1 m/s 604 mmHg 29%
    10:00 +9°C° 0 mm 2 m/s 605 mmHg 26%
    11:00 +9°C° 0 mm 2 m/s 605 mmHg 25%
    12:00 +10°C° 0 mm 2 m/s 605 mmHg 23%
    13:00 +12°C° 0 mm 2 m/s 605 mmHg 22%
    14:00 +12°C° 0 mm 2 m/s 605 mmHg 21%
    15:00 +12°C° 0 mm 2 m/s 605 mmHg 21%
    16:00 +12°C° 0 mm 2 m/s 605 mmHg 21%
    17:00 +10°C° 0 mm 2 m/s 605 mmHg 24%
    18:00 +10°C° 0 mm 1 m/s 605 mmHg 26%
    19:00 +9°C° 0 mm 1 m/s 605 mmHg 29%
    20:00 +8°C° 0 mm 1 m/s 604 mmHg 30%
    21:00 +8°C° 0 mm 1 m/s 604 mmHg 32%
    22:00 +6°C° 0 mm 0 m/s 604 mmHg 33%
    23:00 +7°C° 0 mm 1 m/s 604 mmHg 32%

    Demain, 12 Décembre, Mercredi

    Heure Température Précipitation Vent Pression Humidité
    00:00 +6°C° 0 mm 1 m/s 604 mmHg 32%
    01:00 +6°C° 0 mm 1 m/s 604 mmHg 32%
    02:00 +6°C° 0 mm 1 m/s 603 mmHg 31%
    03:00 +5°C° 0 mm 1 m/s 603 mmHg 31%
    04:00 +5°C° 0 mm 1 m/s 603 mmHg 31%
    05:00 +5°C° 0 mm 1 m/s 603 mmHg 30%
    06:00 +5°C° 0 mm 1 m/s 603 mmHg 30%
    07:00 +4°C° 0 mm 1 m/s 603 mmHg 29%
    08:00 +6°C° 0 mm 1 m/s 605 mmHg 25%
    09:00 +8°C° 0 mm 1 m/s 606 mmHg 21%
    10:00 +11°C° 0 mm 1 m/s 607 mmHg 17%
    11:00 +12°C° 0 mm 1 m/s 607 mmHg 15%
    12:00 +13°C° 0 mm 1 m/s 607 mmHg 14%
    13:00 +14°C° 0 mm 1 m/s 607 mmHg 12%
    14:00 +14°C° 0 mm 1 m/s 607 mmHg 12%
    15:00 +14°C° 0 mm 1 m/s 607 mmHg 12%
    16:00 +14°C° 0 mm 1 m/s 607 mmHg 12%
    17:00 +13°C° 0 mm 1 m/s 606 mmHg 15%
    18:00 +12°C° 0 mm 1 m/s 606 mmHg 18%
    19:00 +10°C° 0 mm 1 m/s 606 mmHg 21%
    20:00 +10°C° 0 mm 1 m/s 606 mmHg 21%
    21:00 +9°C° 0 mm 1 m/s 605 mmHg 21%
    22:00 +9°C° 0 mm 1 m/s 605 mmHg 21%
    23:00 +8°C° 0 mm 1 m/s 605 mmHg 21%

    Après-demain, 13 Décembre, Jeudi

    Heure Température Précipitation Vent Pression Humidité
    00:00 +8°C° 0 mm 1 m/s 605 mmHg 20%
    01:00 +7°C° 0 mm 1 m/s 604 mmHg 20%
    02:00 +7°C° 0 mm 1 m/s 604 mmHg 20%
    03:00 +7°C° 0 mm 1 m/s 604 mmHg 19%
    04:00 +6°C° 0 mm 1 m/s 604 mmHg 19%
    05:00 +6°C° 0 mm 1 m/s 604 mmHg 18%
    06:00 +6°C° 0 mm 1 m/s 604 mmHg 18%
    07:00 +6°C° 0 mm 1 m/s 604 mmHg 18%
    08:00 +8°C° 0 mm 1 m/s 605 mmHg 15%
    09:00 +10°C° 0 mm 1 m/s 607 mmHg 13%
    10:00 +13°C° 0 mm 1 m/s 608 mmHg 10%
    11:00 +14°C° 0 mm 2 m/s 608 mmHg 10%
    12:00 +15°C° 0 mm 2 m/s 608 mmHg 9%
    13:00 +16°C° 0 mm 2 m/s 607 mmHg 8%
    14:00 +16°C° 0 mm 2 m/s 607 mmHg 9%
    15:00 +16°C° 0 mm 2 m/s 607 mmHg 9%
    16:00 +14°C° 0 mm 3 m/s 607 mmHg 10%
    17:00 +14°C° 0 mm 2 m/s 606 mmHg 13%
    18:00 +12°C° 0 mm 2 m/s 606 mmHg 16%
    19:00 +10°C° 0 mm 2 m/s 606 mmHg 19%
    20:00 +10°C° 0 mm 1 m/s 606 mmHg 20%
    21:00 +10°C° 0 mm 1 m/s 605 mmHg 22%
    22:00 +9°C° 0 mm 1 m/s 605 mmHg 23%
    23:00 +8°C° 0 mm 1 m/s 605 mmHg 24%

    14 Décembre, Vendredi

    Heure Température Précipitation Vent Pression Humidité
    00:00 +8°C° 0 mm 1 m/s 605 mmHg 25%
    01:00 +7°C° 0 mm 1 m/s 604 mmHg 26%
    02:00 +7°C° 0 mm 1 m/s 604 mmHg 27%
    03:00 +5°C° 0 mm 0 m/s 604 mmHg 27%
    04:00 +5°C° 0 mm 0 m/s 603 mmHg 28%
    05:00 +4°C° 0 mm 0 m/s 603 mmHg 28%
    06:00 +4°C° 0 mm 0 m/s 604 mmHg 28%
    07:00 +4°C° 0 mm 0 m/s 604 mmHg 29%
    08:00 +6°C° 0 mm 0 m/s 605 mmHg 25%
    09:00 +9°C° 0 mm 1 m/s 606 mmHg 21%
    10:00 +11°C° 0 mm 1 m/s 608 mmHg 17%
    11:00 +12°C° 0 mm 1 m/s 608 mmHg 15%
    12:00 +13°C° 0 mm 1 m/s 607 mmHg 14%
    13:00 +14°C° 0 mm 1 m/s 607 mmHg 13%
    14:00 +14°C° 0 mm 1 m/s 607 mmHg 12%
    15:00 +14°C° 0 mm 1 m/s 607 mmHg 12%
    16:00 +14°C° 0 mm 1 m/s 607 mmHg 12%
    17:00 +13°C° 0 mm 1 m/s 607 mmHg 16%
    18:00 +12°C° 0 mm 1 m/s 606 mmHg 19%
    19:00 +10°C° 0 mm 1 m/s 606 mmHg 22%
    20:00 +10°C° 0 mm 1 m/s 606 mmHg 23%
    21:00 +9°C° 0 mm 1 m/s 606 mmHg 24%
    22:00 +8°C° 0 mm 1 m/s 606 mmHg 26%
    23:00 +8°C° 0 mm 1 m/s 605 mmHg 26%

    15 Décembre, Samedi

    Heure Température Précipitation Vent Pression Humidité
    00:00 +7°C° 0 mm 1 m/s 605 mmHg 27%
    01:00 +7°C° 0 mm 1 m/s 604 mmHg 28%
    02:00 +6°C° 0 mm 1 m/s 604 mmHg 28%
    03:00 +6°C° 0 mm 1 m/s 604 mmHg 28%
    04:00 +6°C° 0 mm 1 m/s 603 mmHg 28%
    05:00 +5°C° 0 mm 1 m/s 603 mmHg 28%
    06:00 +5°C° 0 mm 1 m/s 603 mmHg 28%
    07:00 +5°C° 0 mm 1 m/s 604 mmHg 27%
    08:00 +7°C° 0 mm 1 m/s 605 mmHg 23%
    09:00 +9°C° 0 mm 1 m/s 606 mmHg 19%
    10:00 +11°C° 0 mm 1 m/s 607 mmHg 15%
    11:00 +12°C° 0 mm 1 m/s 607 mmHg 15%
    12:00 +12°C° 0 mm 1 m/s 607 mmHg 14%
    13:00 +13°C° 0 mm 2 m/s 607 mmHg 13%
    14:00 +13°C° 0 mm 2 m/s 607 mmHg 13%
    15:00 +13°C° 0 mm 2 m/s 607 mmHg 13%
    16:00 +13°C° 0 mm 2 m/s 607 mmHg 13%
    17:00 +12°C° 0 mm 1 m/s 606 mmHg 16%
    18:00 +11°C° 0 mm 1 m/s 606 mmHg 19%
    19:00 +9°C° 0 mm 1 m/s 606 mmHg 22%
    20:00 +9°C° 0 mm 1 m/s 606 mmHg 24%
    21:00 +7°C° 0 mm 0 m/s 606 mmHg 25%
    22:00 +6°C° 0 mm 0 m/s 606 mmHg 26%
    23:00 +6°C° 0 mm 0 m/s 606 mmHg 27%

    16 Décembre, Dimanche

    Heure Température Précipitation Vent Pression Humidité
    00:00 +5°C° 0 mm 0 m/s 605 mmHg 27%
    01:00 +5°C° 0 mm 0 m/s 605 mmHg 28%
    02:00 +4°C° 0 mm 0 m/s 605 mmHg 28%
    03:00 +4°C° 0 mm 0 m/s 605 mmHg 28%
    04:00 +4°C° 0 mm 0 m/s 605 mmHg 29%
    05:00 +3°C° 0 mm 0 m/s 605 mmHg 29%
    06:00 +3°C° 0 mm 0 m/s 605 mmHg 29%
    07:00 +3°C° 0 mm 0 m/s 605 mmHg 29%
    08:00 +5°C° 0 mm 0 m/s 606 mmHg 25%
    09:00 +7°C° 0 mm 0 m/s 608 mmHg 20%
    10:00 +10°C° 0 mm 1 m/s 609 mmHg 16%
    11:00 +11°C° 0 mm 1 m/s 609 mmHg 15%
    12:00 +12°C° 0 mm 1 m/s 609 mmHg 15%
    13:00 +12°C° 0 mm 1 m/s 608 mmHg 14%
    14:00 +13°C° 0 mm 1 m/s 608 mmHg 14%
    15:00 +13°C° 0 mm 1 m/s 608 mmHg 14%
    16:00 +13°C° 0 mm 1 m/s 608 mmHg 14%
    17:00 +12°C° 0 mm 1 m/s 608 mmHg 17%
    18:00 +10°C° 0 mm 1 m/s 608 mmHg 20%
    19:00 +9°C° 0 mm 1 m/s 608 mmHg 24%
    20:00 +9°C° 0 mm 1 m/s 607 mmHg 25%
    21:00 +8°C° 0 mm 1 m/s 607 mmHg 26%
    22:00 +6°C° 0 mm 0 m/s 607 mmHg 27%
    23:00 +6°C° 0 mm 0 m/s 607 mmHg 28%
    Voir plus